Hourly Data Report for October 31, 2019

All times are specified in Local Standard Time (LST). Add 1 hour to adjust for Daylight Saving Time where and when it is observed.

CORAL HARBOUR A
NUNAVUT
Current Station Operator: NAVCAN

64°11'36.000" N
83°21'34.000" W
62.20 m
2301002
71915
YZS

Download Data

Hourly Data (October 2019)
Hourly Data Report for October 31, 2019
TIME Temp Definition
°C
Dew Point Definition
°C
Rel Hum Definition
%
Wind Dir Definition
10's deg

Wind Spd Definition
km/h
Visibility Definition
km
Stn Press Definition
kPa
Hmdx Definition


Wind Chill Definition


Weather Definition


00:00 -3.1 -4.1 93 27 30 12.9 100.02   -11 Snow
01:00 -3.6 -4.6 93 27 26 12.9 100.03   -11 Snow
02:00
03:00 -4.0 -5.2 91 29 17 24.1 100.00   -10 Snow
04:00 -5.5 -6.5 93 28 6 24.1 99.98   -8 Snow
05:00 -5.9 -6.9 93 24 17 24.1 99.96   -12 Snow
06:00 -4.7 -5.3 95 24 11 24.1 99.93   -9 Snow
07:00 -5.1 -5.6 96 25 7 24.1 99.90   -8 Snow
08:00 -5.0 -5.5 96 28 4 19.3 99.90   -7 Snow
09:00 -4.7 -5.3 95 25 7 24.1 99.88   -8 Snow
10:00 -4.3 -4.8 96 23 9 19.3 99.84   -8 Snow
11:00 -5.1 -6.1 93 24 13 24.1 99.81   -10 Snow
12:00 -4.7 -5.7 93 25 14 19.3 99.80   -10 Snow
13:00 -4.5 -5.4 94 25 16 24.1 99.80   -10 Snow
14:00 -4.6 -5.4 94 25 14 24.1 99.81   -10 Snow
15:00 -4.8 -5.5 95 21 10 24.1 99.80   -9 Snow
16:00 -6.1 -6.7 95 24 17 24.1 99.79   -12 Snow
17:00 -7.7 -8.3 95 27 13 1.2 99.82   -13 Fog
18:00 -9.6 -10.6 93 24 13 3.2 99.83   -16 Fog
19:00 -7.9 -8.7 94 27 8 1.6 99.86   -12 Fog
20:00 -7.5 -8.3 94 27 5 1.6 99.85   -10 Snow,Fog
21:00 -7.9 -8.7 93 36 2 9.7 99.85   -9 Snow
22:00 -8.2 -9.1 93 36 3 9.7 99.84   -10 Snow
23:00 -6.0 -6.7 95 19 4 16.1 99.83   -8 Snow

Notes on Data Quality.

Legend

  • E = Estimated
  • M = Missing
  • NA = Not Available
Date modified: